SP6DW-13 Weather Reports


time (UTC)temp
C
wind
direction
speed
KPH
gust
KPH
rain 1hr
cm
rain 24hr
cm
rain mn
cm
humidity
%
barometer
mb
20260506081016 16 57 3.2 11.3 0.00 0.56 0.56 74 1007.2
20260506073016 14 155 6.4 14.5 0.00 0.56 0.56 79 1007.2
20260506072015 14 122 3.2 11.3 0.00 0.56 0.56 81 1007.2
20260506071043 14 173 6.4 14.5 0.00 0.56 0.56 81 1007.2
20260506062016 13 148 3.2 11.3 0.00 0.56 0.56 84 1007.5
20260506061019 13 154 1.6 14.5 0.00 0.56 0.56 84 1007.5
20260506051015 13 126 1.6 4.8 0.00 0.56 0.56 87 1007.1
20260506045015 12 151 1.6 6.4 0.00 0.56 0.56 89 1006.9
20260506044016 12 144 3.2 12.9 0.00 0.56 0.56 89 1006.8
20260506043016 12 160 3.2 6.4 0.00 0.56 0.56 89 1006.8
20260506042027 12 148 4.8 11.3 0.00 0.56 0.56 90 1006.8
20260506041025 12 153 4.8 11.3 0.00 0.56 0.56 91 1006.8
20260506040028 12 168 6.4 12.9 0.00 0.56 0.56 91 1006.7
20260506035016 12 148 4.8 11.3 0.00 0.56 0.56 91 1006.7
20260506034016 12 133 1.6 6.4 0.00 0.56 0.56 92 1006.8
20260506033016 12 38 3.2 9.7 0.00 0.56 0.56 94 1007.0
20260506032025 12 77 0.0 3.2 0.00 0.56 0.56 94 1006.9
20260506031023 12 67 0.0 3.2 0.00 0.56 0.56 95 1006.9
20260506030016 12 40 1.6 4.8 0.00 0.56 0.56 95 1006.9
20260506025020 12 69 0.0 3.2 0.00 0.56 0.56 95 1007.0
20260506024015 12 62 0.0 1.6 0.00 0.56 0.56 95 1006.9
20260506023026 12 72 0.0 1.6 0.00 0.56 0.56 95 1007.0
20260506022016 12 80 0.0 3.2 0.00 0.56 0.56 95 1006.9
20260506021019 12 117 0.0 1.6 0.00 0.56 0.56 95 1006.8
20260506020018 12 106 0.0 1.6 0.00 0.56 0.56 95 1006.8
20260506015015 12 0.0 0.0 0.00 0.56 0.56 95 1006.7
20260506014016 12 0.0 0.0 0.03 0.56 0.56 95 1006.7
20260506013016 12 0.0 0.0 0.03 0.56 0.56 95 1006.9
20260506012016 12 80 1.6 1.6 0.05 0.56 0.56 94 1006.8
20260506011033 12 0.0 0.0 0.08 0.56 0.56 94 1007.0
20260506010035 12 116 0.0 1.6 0.15 0.56 0.56 94 1007.1
20260506005016 12 128 0.0 3.2 0.25 0.56 0.56 94 1007.1
20260506004015 12 130 1.6 4.8 0.30 0.53 0.53 94 1007.1
20260506003027 12 126 1.6 3.2 0.36 0.53 0.53 94 1007.4
20260506002028 12 116 0.0 1.6 0.33 0.51 0.51 94 1007.6
20260506001035 12 117 0.0 3.2 0.33 0.48 0.48 93 1007.9
20260506000015 13 103 0.0 1.6 0.25 0.41 0.41 92 1008.2
20260505235015 13 110 0.0 1.6 0.15 0.30 0.30 91 1008.3
20260505234021 13 71 1.6 3.2 0.10 0.23 0.23 90 1008.1
20260505233016 13 47 1.6 6.4 0.08 0.18 0.18 91 1008.3
20260505232015 13 43 1.6 6.4 0.18 0.18 0.18 92 1008.1
20260505231016 13 15 1.6 4.8 0.15 0.15 0.15 93 1008.0
20260505230016 13 26 3.2 9.7 0.15 0.15 0.15 93 1008.1
20260505225021 13 23 3.2 9.7 0.15 0.15 0.15 92 1008.3
20260505224016 13 52 1.6 9.7 0.13 0.13 0.13 91 1008.2
20260505223039 15 65 1.6 6.4 0.10 0.10 0.10 87 1008.0
20260505222015 15 161 3.2 9.7 0.00 0.00 0.00 84 1008.1
20260505221027 15 85 1.6 4.8 0.00 0.00 0.00 83 1006.9
20260505220016 15 138 3.2 11.3 0.00 0.00 0.00 83 1006.3
20260505215016 15 162 6.4 11.3 0.00 0.00 0.00 83 1006.3
20260505214016 15 157 4.8 11.3 0.00 0.00 0.00 81 1006.7
20260505213038 15 153 1.6 3.2 0.00 0.00 0.00 79 1006.9
20260505212538 15 124 1.6 6.4 0.00 0.00 0.00 79 1006.8
20260505211516 16 148 3.2 9.7 0.00 0.00 0.00 78 1006.7
20260505210526 16 142 1.6 4.8 0.00 0.00 0.00 78 1006.7
20260505205527 16 134 1.6 6.4 0.00 0.00 0.00 78 1006.8
20260505204521 16 148 3.2 6.4 0.00 0.00 0.00 76 1006.6
20260505203515 16 143 3.2 9.7 0.00 0.00 0.00 75 1006.7
20260505202527 16 144 3.2 11.3 0.00 0.00 0.00 75 1006.9
20260505201516 16 146 3.2 9.7 0.00 0.00 0.00 74 1007.0
20260505200516 17 152 3.2 6.4 0.00 0.00 0.00 74 1007.1
20260505195536 17 134 1.6 6.4 0.00 0.00 0.00 74 1007.3
20260505194515 17 90 1.6 4.8 0.00 0.00 0.00 73 1007.4
20260505193556 17 107 1.6 3.2 0.00 0.00 0.00 73 1007.5
20260505192526 17 118 0.0 1.6 0.00 0.00 0.00 72 1007.7
20260505191515 17 116 1.6 6.4 0.00 0.00 0.00 72 1007.6
20260505190515 17 138 3.2 6.4 0.00 0.00 0.00 72 1007.3
20260505185515 17 112 1.6 4.8 0.00 0.00 0.00 71 1007.2
20260505184525 18 118 1.6 6.4 0.00 0.00 0.00 70 1007.2
20260505183539 18 143 1.6 4.8 0.00 0.00 0.00 70 1007.3
20260505182601 18 130 1.6 3.2 0.00 0.00 0.00 69 1007.3
20260505181517 18 74 0.0 4.8 0.00 0.00 0.00 69 1007.4
20260505180516 18 52 1.6 9.7 0.00 0.00 0.00 68 1007.4
20260505175518 19 78 1.6 6.4 0.00 0.00 0.00 67 1007.4
20260505174518 19 116 1.6 9.7 0.00 0.00 0.00 66 1007.5
20260505173516 20 79 1.6 9.7 0.00 0.00 0.00 66 1007.7
20260505172536 20 80 3.2 11.3 0.00 0.00 0.00 65 1007.7
20260505171516 20 81 3.2 11.3 0.00 0.00 0.00 64 1007.6
20260505170516 21 115 3.2 9.7 0.00 0.00 0.00 63 1007.6
20260505165516 21 122 3.2 6.4 0.00 0.00 0.00 61 1007.6
20260505164536 22 84 1.6 4.8 0.00 0.00 0.00 60 1007.6
20260505163516 21 61 3.2 11.3 0.00 0.00 0.00 60 1007.6
20260505162520 21 68 3.2 9.7 0.00 0.00 0.00 60 1007.7
20260505161536 21 62 3.2 9.7 0.00 0.00 0.00 59 1007.8
20260505160517 22 97 3.2 9.7 0.00 0.00 0.00 58 1007.9
20260505152515 22 62 3.2 9.7 0.00 0.00 0.00 57 1008.0
20260505151528 21 86 3.2 9.7 0.00 0.00 0.00 59 1008.1
20260505150521 22 77 3.2 9.7 0.00 0.00 0.00 59 1008.0
20260505140524 24 35 4.8 11.3 0.00 0.00 0.00 49 1008.2
20260505124516 23 87 1.6 6.4 0.00 0.00 0.00 44 1008.7
20260505123516 23 16 4.8 11.3 0.00 0.00 0.00 47 1008.9
20260505122526 23 49 3.2 11.3 0.00 0.00 0.00 48 1009.0
20260505121535 23 45 3.2 6.4 0.00 0.00 0.00 49 1009.0
20260505120519 23 30 6.4 16.1 0.00 0.00 0.00 51 1008.9
20260505115515 23 22 3.2 11.3 0.00 0.00 0.00 50 1009.0
20260505114522 23 45 4.8 14.5 0.00 0.00 0.00 49 1009.0
20260505113518 23 69 1.6 4.8 0.00 0.00 0.00 48 1009.0
20260505112516 23 37 4.8 12.9 0.00 0.00 0.00 49 1009.2
20260505111515 22 19 6.4 11.3 0.00 0.00 0.00 49 1009.2
20260505110516 22 40 4.8 12.9 0.00 0.00 0.00 51 1009.1
20260505101523 22 26 3.2 9.7 0.00 0.00 0.00 45 1009.7
20260505100516 21 23 4.8 9.7 0.00 0.00 0.00 44 1009.7
20260505095516 21 29 3.2 9.7 0.00 0.00 0.00 44 1009.8
20260505094515 21 30 3.2 6.4 0.00 0.00 0.00 44 1009.8
20260505093519 21 43 3.2 11.3 0.00 0.00 0.00 46 1009.8
20260505092520 21 17 3.2 9.7 0.00 0.00 0.00 46 1010.0
20260505091516 20 34 3.2 9.7 0.00 0.00 0.00 48 1010.0
20260505090526 20 13 4.8 9.7 0.00 0.00 0.00 49 1010.1
20260505085518 20 46 3.2 6.4 0.00 0.00 0.00 52 1010.1
20260505084515 19 42 3.2 11.3 0.00 0.00 0.00 53 1010.2
20260505083528 18 31 3.2 6.4 0.00 0.00 0.00 56 1010.2
20260505082523 18 37 1.6 4.8 0.00 0.00 0.00 57 1010.4
20260505081516 18 16 4.8 11.3 0.00 0.00 0.00 60 1010.3